N2193G MDPC-MDPC

Flight info

Callsign N2193G
Flight time 0h 3m
Altitude 2500
Route MDPC
Aircraft EC45/L-SDE3L/L

Departure

Time 2026-05-08 23:06
Airport Punta Cana International Airport (MDPC)

Arrival

Time 2026-05-08 23:09
Airport Punta Cana International Airport (MDPC)
Time Latitude Longitude Altitude Speed Heading
2026-05-08 23:05 18.64433 -68.41421 74 ft 0 kts 360°
2026-05-08 23:06 18.64402 -68.41389 237 ft 24 kts 129°
2026-05-08 23:06 18.64200 -68.41241 536 ft 46 kts 142°
2026-05-08 23:06 18.63883 -68.40976 828 ft 69 kts 140°
2026-05-08 23:07 18.63444 -68.40618 974 ft 91 kts 133°
2026-05-08 23:07 18.62914 -68.40154 1014 ft 105 kts 134°
2026-05-08 23:07 18.62350 -68.39682 1098 ft 107 kts 140°
2026-05-08 23:07 18.61593 -68.39418 978 ft 127 kts 163°
2026-05-08 23:08 18.60693 -68.39194 888 ft 139 kts 161°
2026-05-08 23:08 18.59757 -68.38969 808 ft 134 kts 166°
2026-05-08 23:08 18.58839 -68.38749 764 ft 134 kts 162°
2026-05-08 23:08 18.58030 -68.38361 897 ft 121 kts 145°
2026-05-08 23:09 18.57627 -68.37742 935 ft 91 kts 106°
2026-05-08 23:09 18.57474 -68.37233 648 ft 63 kts 101°
2026-05-08 23:09 18.57364 -68.36745 354 ft 70 kts 117°
2026-05-08 23:09 18.57154 -68.36444 202 ft 39 kts 214°
2026-05-08 23:10 18.56928 -68.36442 129 ft 33 kts 186°
2026-05-08 23:10 18.56691 -68.36425 76 ft 28 kts 174°
2026-05-08 23:10 18.56586 -68.36424 63 ft 8 kts 238°
2026-05-08 23:10 18.56558 -68.36485 68 ft 12 kts 268°
2026-05-08 23:11 18.56548 -68.36553 68 ft 7 kts 268°
2026-05-08 23:11 18.56543 -68.36631 67 ft 13 kts 269°
2026-05-08 23:11 18.56527 -68.36797 65 ft 34 kts 267°
2026-05-08 23:11 18.56507 -68.37016 65 ft 28 kts 269°
2026-05-08 23:12 18.56488 -68.37228 64 ft 31 kts 269°
2026-05-08 23:12 18.56471 -68.37446 66 ft 28 kts 269°
2026-05-08 23:12 18.56366 -68.37527 77 ft 14 kts 270°
2026-05-08 23:12 18.56336 -68.37557 88 ft 8 kts 332°
2026-05-08 23:13 18.56342 -68.37531 84 ft 7 kts 47°
2026-05-08 23:13 18.56342 -68.37491 76 ft 5 kts 47°
2026-05-08 23:13 18.56344 -68.37461 66 ft 3 kts 57°
2026-05-08 23:13 18.56352 -68.37444 57 ft 3 kts 57°
2026-05-08 23:14 18.56362 -68.37430 49 ft 2 kts 57°
2026-05-08 23:14 18.56364 -68.37427 46 ft 0 kts 56°
2026-05-08 23:21 18.56353 -68.37431 56 ft 1 kts
2026-05-08 23:21 18.56359 -68.37486 54 ft 13 kts 267°
2026-05-08 23:21 18.56357 -68.37572 60 ft 12 kts 268°
2026-05-08 23:21 18.56361 -68.37615 57 ft 10 kts 331°
2026-05-08 23:22 18.56452 -68.37636 67 ft 14 kts 345°
2026-05-08 23:22 18.56619 -68.37652 73 ft 36 kts 348°
2026-05-08 23:22 18.56797 -68.37530 277 ft 42 kts 80°
2026-05-08 23:22 18.56863 -68.37084 370 ft 79 kts 83°
2026-05-08 23:23 18.56922 -68.36441 320 ft 97 kts 83°
2026-05-08 23:23 18.57199 -68.35880 540 ft 90 kts 21°
2026-05-08 23:23 18.57768 -68.36144 770 ft 98 kts 310°
2026-05-08 23:23 18.57743 -68.36870 977 ft 104 kts 258°
2026-05-08 23:24 18.57589 -68.37648 1148 ft 113 kts 259°
2026-05-08 23:24 18.57452 -68.38509 1253 ft 124 kts 263°
2026-05-08 23:24 18.57382 -68.39414 1333 ft 127 kts 267°
2026-05-08 23:24 18.57282 -68.40357 1469 ft 132 kts 265°
2026-05-08 23:25 18.57201 -68.41327 1549 ft 134 kts 269°
2026-05-08 23:25 18.57155 -68.42317 1584 ft 136 kts 268°
2026-05-08 23:25 18.57066 -68.43317 1611 ft 140 kts 265°
2026-05-08 23:25 18.56715 -68.44193 1727 ft 130 kts 218°
2026-05-08 23:26 18.55863 -68.44327 1741 ft 128 kts 156°
2026-05-08 23:26 18.55220 -68.43801 1936 ft 108 kts 121°
2026-05-08 23:26 18.55138 -68.43063 1977 ft 109 kts 73°
2026-05-08 23:26 18.55324 -68.42279 1814 ft 116 kts 71°
2026-05-08 23:27 18.55565 -68.41462 1617 ft 115 kts 73°
2026-05-08 23:27 18.55821 -68.40670 1434 ft 115 kts 71°
2026-05-08 23:27 18.56105 -68.39833 944 ft 131 kts 70°
2026-05-08 23:27 18.56324 -68.38851 462 ft 137 kts 78°
2026-05-08 23:28 18.56424 -68.37927 259 ft 105 kts 85°
2026-05-08 23:28 18.56473 -68.37431 103 ft 25 kts 94°
2026-05-08 23:28 18.56478 -68.37283 64 ft 15 kts 86°
2026-05-08 23:28 18.56481 -68.37247 56 ft 2 kts 119°
2026-05-08 23:29 18.56465 -68.37230 54 ft 4 kts 172°
2026-05-08 23:29 18.56440 -68.37223 53 ft 4 kts 178°
2026-05-08 23:29 18.56418 -68.37220 44 ft 2 kts 178°
2026-05-08 23:29 18.56415 -68.37220 43 ft 0 kts 178°